DW6162 Weather Reports


Display with metric or nautical units.
time (UTC)temp
F
wind
direction
speed
MPH
gust
MPH
rain 1hr
in
rain 24hr
in
rain mn
in
humidity
%
barometer
mb
20260905235848 63 320 2.0 3.0 0.00 0.00 0.00 80 1015.4
20260905234503 63 333 1.0 2.0 0.00 0.00 0.00 80 1013.1
20260905234048 64 332 1.0 3.0 0.00 0.00 0.00 79 1015.1
20260905233148 64 322 1.0 3.0 0.00 0.00 0.00 79 1015.3
20260905233132 64 318 1.0 3.0 0.00 0.00 0.00 78 1013.2
20260905231502 64 323 1.0 2.0 0.00 0.00 0.00 77 1013.2
20260905231348 65 332 2.0 3.0 0.00 0.00 0.00 77 1015.3
20260905230448 65 324 2.0 3.0 0.00 0.00 0.00 76 1015.4
20260905225548 66 321 1.0 2.0 0.00 0.00 0.00 76 1015.2
20260905224648 66 326 2.0 3.0 0.00 0.00 0.00 76 1015.2
20260905224510 66 32 1.0 3.0 0.00 0.00 0.00 75 1013.1
20260905223748 66 315 2.0 3.0 0.00 0.00 0.00 75 1015.2
20260905223107 66 322 2.0 3.0 0.00 0.00 0.00 74 1012.9
20260905222848 67 330 2.0 3.0 0.00 0.00 0.00 74 1015.0
20260905221948 67 327 2.0 5.0 0.00 0.00 0.00 73 1015.0
20260905221502 67 308 1.0 4.0 0.00 0.00 0.00 71 1012.9
20260905220148 69 339 2.0 5.0 0.00 0.00 0.00 69 1014.8
20260905220105 68 333 3.0 5.0 0.00 0.00 0.00 69 1012.7
20260905215248 69 335 3.0 5.0 0.00 0.00 0.00 69 1014.9
20260905214503 69 19 2.0 7.0 0.00 0.00 0.00 67 1012.6
20260905214348 69 337 3.0 6.0 0.00 0.00 0.00 68 1014.8
20260905213447 70 349 3.0 6.0 0.00 0.00 0.00 68 1014.8
20260905213102 69 354 3.0 5.0 0.00 0.00 0.00 68 1012.4
20260905212548 69 350 2.0 5.0 0.00 0.00 0.00 66 1014.7
20260905211503 69 5 1.0 4.0 0.00 0.00 0.00 67 1012.4
20260905210748 69 330 2.0 5.0 0.00 0.00 0.00 67 1014.6
20260905205847 69 329 3.0 5.0 0.00 0.00 0.00 69 1014.7
20260905204947 69 333 3.0 6.0 0.00 0.00 0.00 68 1014.7
20260905204503 69 322 3.0 5.0 0.00 0.00 0.00 67 1012.6
20260905204047 70 349 3.0 6.0 0.00 0.00 0.00 66 1014.9
20260905203147 71 347 3.0 4.0 0.00 0.00 0.00 65 1014.7
20260905203105 70 29 2.0 5.0 0.00 0.00 0.00 65 1012.5
20260905202248 71 341 2.0 8.0 0.00 0.00 0.00 62 1014.7
20260905201503 71 319 0.0 6.0 0.00 0.00 0.00 62 1012.5
20260905201347 71 338 3.0 6.0 0.00 0.00 0.00 61 1014.7
20260905200104 70 311 2.0 6.0 0.00 0.00 0.00 64 1012.5
20260905195547 71 332 4.0 9.0 0.00 0.00 0.00 64 1014.7
20260905194648 71 327 3.0 10.0 0.00 0.00 0.00 67 1014.7
20260905194502 70 238 2.0 9.0 0.00 0.00 0.00 63 1012.3
20260905193102 70 319 3.0 7.0 0.00 0.00 0.00 62 1012.5
20260905192847 70 345 2.0 6.0 0.00 0.00 0.00 64 1014.7
20260905191948 70 345 2.0 6.0 0.00 0.00 0.00 68 1014.7
20260905191502 69 333 3.0 6.0 0.00 0.00 0.00 66 1012.5
20260905191047 69 327 3.0 6.0 0.00 0.00 0.00 66 1014.9
20260905190147 69 332 3.0 7.0 0.00 0.00 0.00 68 1014.9
20260905190137 69 301 3.0 6.0 0.00 0.00 0.00 67 1012.6
20260905185247 70 327 2.0 5.0 0.00 0.00 0.00 66 1014.9
20260905184503 69 318 2.0 5.0 0.00 0.00 0.00 67 1012.7
20260905184348 69 341 2.0 5.0 0.00 0.00 0.00 67 1015.0
20260905183447 68 340 2.0 6.0 0.00 0.00 0.00 68 1015.1
20260905183103 68 308 1.0 5.0 0.00 0.00 0.00 72 1012.9
20260905182547 68 329 3.0 5.0 0.00 0.00 0.00 71 1015.1
20260905181648 69 335 3.0 6.0 0.00 0.00 0.00 69 1015.2
20260905181502 69 5 3.0 6.0 0.00 0.00 0.00 69 1013.0
20260905180105 70 336 2.0 5.0 0.00 0.00 0.00 70 1012.8
20260905175848 70 350 2.0 6.0 0.00 0.00 0.00 70 1015.1
20260905174947 69 335 3.0 7.0 0.00 0.00 0.00 70 1015.1
20260905174507 68 320 3.0 6.0 0.00 0.00 0.00 70 1012.9
20260905174047 68 324 2.0 6.0 0.00 0.00 0.00 70 1015.1
20260905173148 68 337 2.0 5.0 0.00 0.00 0.00 70 1015.2
20260905173104 68 346 1.0 5.0 0.00 0.00 0.00 70 1013.0
20260905171502 66 340 2.0 5.0 0.00 0.00 0.00 72 1013.2
20260905171347 67 322 2.0 5.0 0.00 0.00 0.00 72 1015.4
20260905170448 68 6 1.0 4.0 0.00 0.00 0.00 71 1015.4
20260905170120 68 40 0.0 4.0 0.00 0.00 0.00 71 1013.1
20260905165547 69 5 1.0 2.0 0.00 0.00 0.00 71 1015.5
20260905164503 68 32 1.0 5.0 0.00 0.00 0.00 70 1013.2
20260905163106 67 13 1.0 4.0 0.00 0.00 0.00 72 1013.4
20260905162848 68 347 2.0 6.0 0.00 0.00 0.00 71 1015.6
20260905161947 68 351 3.0 6.0 0.00 0.00 0.00 70 1015.6
20260905161503 68 27 2.0 5.0 0.00 0.00 0.00 72 1013.3
20260905161047 68 338 2.0 5.0 0.00 0.00 0.00 72 1015.6
20260905160105 67 322 3.0 11.0 0.00 0.00 0.00 72 1013.5
20260905155247 67 352 2.0 6.0 0.00 0.00 0.00 72 1015.7
20260905154502 66 344 1.0 4.0 0.00 0.00 0.00 79 1013.4
20260905154347 67 347 3.0 5.0 0.00 0.00 0.00 78 1015.7
20260905153447 67 326 3.0 8.0 0.00 0.00 0.00 76 1015.6
20260905153102 66 315 4.0 8.0 0.00 0.00 0.00 76 1013.4
20260905152547 66 329 3.0 7.0 0.00 0.00 0.00 80 1015.6
20260905151647 66 340 3.0 7.0 0.00 0.00 0.00 80 1015.6
20260905151502 65 333 2.0 6.0 0.00 0.00 0.00 82 1013.3
20260905150747 65 337 2.0 5.0 0.00 0.00 0.00 84 1015.6
20260905145847 64 338 2.0 4.0 0.00 0.00 0.00 87 1015.6
20260905144947 63 323 3.0 6.0 0.00 0.00 0.00 85 1015.7
20260905144503 63 304 2.0 6.0 0.00 0.00 0.00 86 1013.4
20260905144047 63 323 3.0 5.0 0.00 0.00 0.00 87 1015.5
20260905143147 63 326 3.0 7.0 0.00 0.00 0.00 88 1015.6
20260905143102 62 318 2.0 7.0 0.00 0.00 0.00 87 1013.4
20260905142247 63 326 3.0 9.0 0.00 0.00 0.00 88 1015.4
20260905141503 62 316 1.0 6.0 0.00 0.00 0.00 89 1013.1
20260905134503 61 338 0.0 4.0 0.00 0.00 0.00 92 1013.0
20260905133747 61 352 2.0 4.0 0.00 0.00 0.00 93 1015.3
20260905133101 61 319 2.0 4.0 0.00 0.00 0.00 94 1012.9
20260905131947 61 331 2.0 4.0 0.00 0.00 0.00 95 1015.4
20260905131503 60 311 1.0 3.0 0.00 0.00 0.00 96 1013.1
20260905131047 60 349 2.0 3.0 0.00 0.00 0.00 96 1015.2
20260905130116 59 1 2.0 4.0 0.00 0.00 0.00 96 1012.9
20260905125247 60 347 2.0 5.0 0.00 0.00 0.00 96 1015.3
20260905124503 59 341 2.0 6.0 0.00 0.00 0.00 97 1013.1
20260905124347 60 329 3.0 6.0 0.00 0.00 0.00 97 1015.5
20260905123447 59 335 3.0 6.0 0.00 0.00 0.00 97 1015.6
20260905123110 59 334 3.0 8.0 0.00 0.00 0.00 97 1013.1
20260905122547 59 336 3.0 8.0 0.00 0.00 0.00 97 1015.6
20260905121503 59 356 3.0 6.0 0.00 0.00 0.00 98 1013.1
20260905120747 59 334 3.0 7.0 0.00 0.00 0.00 98 1015.5
20260905115847 59 342 2.0 6.0 0.00 0.00 0.00 99 1015.4
20260905114947 59 334 2.0 4.0 0.00 0.00 0.00 99 1015.5
20260905114506 58 356 1.0 4.0 0.00 0.00 0.00 99 1013.2
20260905114047 59 333 1.0 4.0 0.00 0.00 0.00 99 1015.6
20260905113112 58 329 1.0 4.0 0.00 0.00 0.00 99 1013.1
20260905112247 59 318 1.0 3.0 0.00 0.00 0.00 99 1015.5
20260905111502 58 319 0.0 3.0 0.00 0.00 0.00 99 1013.0
20260905111347 59 2 0.0 3.0 0.00 0.00 0.00 99 1015.3
20260905110447 58 336 0.0 2.0 0.00 0.00 0.00 98 1015.2
20260905110104 58 326 0.0 3.0 0.00 0.00 0.00 98 1012.7
20260905105547 59 332 0.0 1.0 0.00 0.00 0.00 98 1014.9
20260905104647 59 334 1.0 3.0 0.00 0.00 0.00 98 1014.7
20260905104503 58 333 0.0 3.0 0.00 0.00 0.00 98 1012.3
20260905103103 58 333 1.0 2.0 0.00 0.00 0.00 98 1012.1
20260905101503 59 336 0.0 3.0 0.00 0.00 0.00 98 1011.9
20260905100147 59 344 0.0 1.0 0.00 0.00 0.00 98 1014.3
20260905100105 59 345 0.0 1.0 0.00 0.00 0.00 98 1011.9
20260905095247 59 342 0.0 1.0 0.00 0.00 0.00 98 1014.3
20260905094503 59 344 0.0 1.0 0.00 0.00 0.00 98 1012.0
20260905094347 60 340 0.0 1.0 0.00 0.00 0.00 98 1014.4
20260905093104 59 329 0.0 2.0 0.00 0.00 0.00 98 1012.1
20260905092547 60 0 0.0 0.0 0.00 0.00 0.00 98 1014.5
20260905091503 59 319 0.0 1.0 0.00 0.00 0.00 98 1012.0
20260905090747 60 322 0.0 3.0 0.00 0.00 0.00 98 1014.3
20260905090103 59 327 0.0 1.0 0.00 0.00 0.00 98 1011.9
20260905085847 60 333 0.0 1.0 0.00 0.00 0.00 98 1014.4
20260905084947 60 336 0.0 2.0 0.00 0.00 0.00 98 1014.3
20260905084508 60 333 0.0 1.0 0.00 0.00 0.00 97 1011.8
20260905084047 60 328 0.0 3.0 0.00 0.00 0.00 97 1014.4
20260905083147 60 329 0.0 2.0 0.00 0.00 0.00 97 1014.3
20260905083103 60 330 0.0 1.0 0.00 0.00 0.00 97 1011.8
20260905082247 61 330 0.0 2.0 0.00 0.00 0.00 97 1014.4
20260905081502 60 332 0.0 2.0 0.00 0.00 0.00 97 1011.9
20260905081347 61 322 0.0 2.0 0.00 0.00 0.00 97 1014.4
20260905080447 61 354 0.0 3.0 0.00 0.00 0.00 97 1014.4
20260905080104 61 15 0.0 3.0 0.00 0.00 0.00 97 1011.8
20260905074647 61 321 0.0 1.0 0.00 0.00 0.00 97 1014.4
20260905074503 61 326 0.0 1.0 0.00 0.00 0.00 97 1011.9
20260905073747 61 318 0.0 1.0 0.00 0.00 0.00 96 1014.5
20260905073103 61 319 0.0 1.0 0.00 0.00 0.00 96 1011.9
20260905072847 62 0 0.0 0.0 0.00 0.00 0.00 96 1014.6
20260905071947 62 5 1.0 2.0 0.00 0.00 0.00 96 1014.5
20260905071502 62 4 0.0 2.0 0.00 0.00 0.00 96 1012.0
20260905070147 62 345 0.0 1.0 0.00 0.00 0.00 96 1014.9
20260905070116 62 347 0.0 1.0 0.00 0.00 0.00 96 1012.2
20260905065247 62 345 0.0 1.0 0.00 0.00 0.00 96 1015.0
20260905064502 61 346 0.0 2.0 0.00 0.00 0.00 96 1012.5
20260905064347 62 345 0.0 2.0 0.00 0.00 0.00 96 1015.1
20260905063447 62 0 0.0 0.0 0.00 0.00 0.00 96 1015.1
20260905063103 62 346 0.0 0.0 0.00 0.00 0.00 96 1012.5
20260905062547 62 0 0.0 0.0 0.00 0.00 0.00 96 1015.2
20260905061647 62 0 0.0 0.0 0.00 0.00 0.00 96 1015.3
20260905061503 62 346 0.0 0.0 0.00 0.00 0.00 96 1012.7
20260905060747 62 0 0.0 0.0 0.00 0.00 0.00 96 1015.5
20260905055847 62 0 0.0 0.0 0.00 0.00 0.00 95 1015.5
20260905054947 62 0 0.0 0.0 0.00 0.00 0.00 95 1015.5
20260905054503 62 346 0.0 0.0 0.00 0.00 0.00 95 1012.8
20260905054047 62 0 0.0 0.0 0.00 0.00 0.00 95 1015.4
20260905053147 62 0 0.0 0.0 0.00 0.00 0.00 95 1015.6
20260905053113 62 345 0.0 0.0 0.00 0.00 0.00 95 1012.9
20260905052247 63 345 0.0 1.0 0.00 0.00 0.00 95 1015.6
20260905051502 62 345 0.0 0.0 0.00 0.00 0.00 96 1013.0
20260905050447 63 10 1.0 3.0 0.00 0.00 0.00 96 1015.8
20260905045547 63 339 0.0 2.0 0.00 0.00 0.00 96 1015.7
20260905044647 63 0 0.0 0.0 0.00 0.00 0.00 95 1015.7
20260905044503 62 338 0.0 0.0 0.00 0.00 0.00 95 1013.1
20260905043747 63 338 0.0 1.0 0.00 0.00 0.00 95 1015.7
20260905043106 62 338 0.0 1.0 0.00 0.00 0.00 95 1013.0
20260905041947 63 329 1.0 1.0 0.00 0.00 0.00 95 1015.7
20260905041503 63 338 0.0 2.0 0.00 0.00 0.00 95 1013.0
20260905041047 64 327 1.0 3.0 0.00 0.00 0.00 94 1015.6
20260905040147 64 336 2.0 3.0 0.00 0.00 0.00 93 1015.6
20260905040104 64 333 1.0 3.0 0.00 0.00 0.00 93 1013.0
20260905035247 64 327 2.0 3.0 0.00 0.00 0.00 92 1015.7
20260905034505 64 330 2.0 3.0 0.00 0.00 0.00 92 1012.8
20260905034347 65 330 1.0 3.0 0.00 0.00 0.00 92 1015.6
20260905033447 65 6 1.0 2.0 0.00 0.00 0.00 92 1015.4
20260905033103 64 4 1.0 2.0 0.00 0.00 0.00 92 1012.6
20260905032547 65 7 0.0 2.0 0.00 0.00 0.00 91 1015.4
20260905031647 65 324 1.0 4.0 0.00 0.00 0.00 91 1015.4
20260905031503 65 18 0.0 3.0 0.00 0.00 0.00 92 1012.7
20260905030747 65 0 0.0 0.0 0.00 0.00 0.00 92 1015.4
20260905030107 65 325 0.0 2.0 0.00 0.00 0.00 92 1012.7
20260905025847 65 325 0.0 2.0 0.00 0.00 0.00 92 1015.4
20260905024947 66 329 0.0 1.0 0.00 0.00 0.00 91 1015.3
20260905024502 65 330 0.0 1.0 0.00 0.01 0.00 91 1012.7
20260905023147 66 359 1.0 2.0 0.00 0.00 0.00 90 1015.4
20260905023110 66 342 0.0 3.0 0.00 0.01 0.00 90 1012.7
20260905022247 66 345 1.0 3.0 0.00 0.00 0.00 90 1015.5
20260905021505 66 345 0.0 2.0 0.00 0.01 0.00 89 1012.5
20260905020447 67 323 1.0 4.0 0.00 0.01 0.00 89 1015.3
20260905015547 67 338 2.0 4.0 0.00 0.01 0.00 89 1015.5
20260905014647 67 324 2.0 3.0 0.00 0.01 0.00 88 1015.6
20260905014502 67 302 1.0 4.0 0.00 0.03 0.00 89 1012.8
20260905013746 67 328 2.0 4.0 0.00 0.02 0.00 88 1015.5
20260905013113 67 330 0.0 4.0 0.00 0.03 0.00 89 1012.6
20260905011947 67 331 2.0 4.0 0.00 0.03 0.00 88 1015.5
20260905011501 67 329 2.0 4.0 0.00 0.03 0.00 88 1012.6
20260905011047 68 332 1.0 4.0 0.00 0.03 0.00 88 1015.3
20260905010147 68 335 1.0 4.0 0.00 0.03 0.00 88 1015.3
20260905010107 67 333 1.0 4.0 0.00 0.03 0.00 88 1012.5
20260905005247 68 316 0.0 1.0 0.00 0.03 0.00 88 1015.4
20260905004503 68 316 0.0 2.0 0.00 0.03 0.00 87 1012.6
20260905004347 68 313 1.0 2.0 0.00 0.03 0.00 87 1015.3
20260905003102 68 322 2.0 6.0 0.00 0.03 0.00 87 1012.5
20260905001647 69 332 2.0 4.0 0.00 0.03 0.00 87 1015.4
20260905001502 68 324 1.0 3.0 0.00 0.03 0.00 87 1012.5